[Iaude] MPEC J258: 2024 JP10 [a=2.44,e=0.81,i=9.3,H=23.6]

mpec at cfa.harvard.edu mpec at cfa.harvard.edu
Fri May 10 18:15:40 EDT 2024


M.P.E.C. 2024-J258                                 Issued 2024 May 10, 22:14 UT

     The Minor Planet Electronic Circulars contain information on unusual
         minor planets, routine data on comets and natural satellites,
         and occasional editorial announcements.  They are published
    on behalf of Division F of the International Astronomical Union by the
          Minor Planet Center, Smithsonian Astrophysical Observatory,
                          Cambridge, MA 02138, U.S.A.
			  
             Prepared using the Tamkin Foundation Computer Network

                              MPC at CFA.HARVARD.EDU
            URL https://www.minorplanetcenter.net/    ISSN 1523-6714

                                   2024 JP10                                    


Observations:
     K24J10P  C2024 05 07.36760013 28 07.465-28 39 41.45         20.03GVEJ258F51
     K24J10P  C2024 05 07.37733613 27 57.914-28 39 20.35         19.68GVEJ258F51
     K24J10P  C2024 05 09.28061212 49 56.556-26 49 25.96         19.76GVEJ258F51
     K24J10P  C2024 05 09.29231912 49 38.323-26 48 25.32         19.00GVEJ258F51
     K24J10P  C2024 05 09.30401812 49 20.104-26 47 24.51         19.24GVEJ258F51
     K24J10P*1C2024 05 10.20530812 23 36.287-25 07 50.52               VEJ258G96
     K24J10P 1C2024 05 10.21063012 23 25.876-25 07 06.46         18.94GVEJ258G96
     K24J10P 1C2024 05 10.21596312 23 15.472-25 06 23.15         19.01GVEJ258G96
     K24J10P 1C2024 05 10.22128012 23 05.010-25 05 38.62         19.43GVEJ258G96
     K24J10P mC2024 05 10.23661412 22 34.561-25 03 29.56         18.86GVEJ258I52
     K24J10P mC2024 05 10.23686612 22 34.090-25 03 27.90         19.35GVEJ258I52
     K24J10P mC2024 05 10.23711712 22 33.553-25 03 25.70         19.47GVEJ258I52
     K24J10P mC2024 05 10.23736712 22 33.100-25 03 23.29         19.07GVEJ258I52
     K24J10P  C2024 05 10.25929412 21 49.134-25 00 17.72         19.6 GVEJ258H01
     K24J10P mC2024 05 10.26019412 21 47.714-25 00 09.29         19.34GVEJ258I52
     K24J10P mC2024 05 10.26050312 21 47.092-25 00 06.80         19.55GVEJ258I52
     K24J10P mC2024 05 10.26081612 21 46.487-25 00 04.50         19.41GVEJ258I52
     K24J10P mC2024 05 10.26112512 21 45.896-25 00 01.30         19.69GVEJ258I52
     K24J10P  C2024 05 10.26309712 21 41.574-24 59 45.27         19.4 GVEJ258H01
     K24J10P  C2024 05 10.26683512 21 34.132-24 59 13.03         18.9 GVEJ258H01
     K24J10P  C2024 05 10.27013912 21 27.548-24 58 44.52         19.1 GVEJ258H01
     K24J10P KC2024 05 10.36253112 18 30.701-24 43 03.50         19.4 GVEJ258474
     K24J10P KC2024 05 10.36385312 18 28.003-24 42 51.55         19.4 GVEJ258474
     K24J10P KC2024 05 10.36517512 18 25.301-24 42 39.74         19.2 GVEJ258474
     K24J10P KC2024 05 10.36781712 18 19.898-24 42 16.63         19.5 GVEJ258474
     K24J10P KB2024 05 10.51149512 13 24.384-24 22 39.80         19.7 GXEJ258Q06
     K24J10P KB2024 05 10.51941712 13 07.484-24 21 23.80         19.5 GXEJ258Q06
     K24J10P KB2024 05 10.52727912 12 50.738-24 20 06.72         19.0 GXEJ258Q06
     K24J10P KB2024 05 10.85441012 01 00.11 -23 23 26.2                XEJ258I93
     K24J10P KB2024 05 10.85735512 00 53.33 -23 22 53.1          19.4 GXEJ258I93
     K24J10P KB2024 05 10.86006012 00 47.13 -23 22 22.3          19.4 GXEJ258I93

Observer details:
474 Mount John Observatory, Lake Tekapo.  Observers A. C. Gilmore, P. M.
    Kilmartin.  Measurer P. M. Kilmartin.  1.0-m f/7.7 Reflector + CCD.
F51 Pan-STARRS 1, Haleakala.  Observers J. Herman, T. Lowe, P. Minguez, A.
    Schultz, I. Smith.  Measurers K. Chambers, T. de Boer, J. Fairlamb, H.
    Gao, M. Huber, C.-C. Lin, E. Magnier, Y. Ramanjooloo, R. Wainscoat, R.
    Weryk.  1.8-m Ritchey-Chretien + CCD.
G96 Mt. Lemmon Survey.  Observer J. K. Hogan.  Measurers T. Beuden, V. F.
    Carvajal, D. Fay, J. B. Fazekas, D. C. Fuls, A. R. Gibbs, A. D. Grauer, H.
    Groeller, J. K. Hogan, R. A. Kowalski, S. M. Larson, G. J. Leonard, D.
    Rankin, R. L. Seaman, F. C. Shelly, K. W. Wierzchos.  1.5-m reflector +
    10K CCD.
H01 Magdalena Ridge Observatory, Socorro.  Observers W. H. Ryan, E. V. Ryan.
    Measurer W. H. Ryan.  2.4-m f/8.9 Ritchey-Chretien + CCD.
I52 Steward Observatory, Mt. Lemmon Station.  Observer H. Groeller.  Measurers
    T. Beuden, V. F. Carvajal, D. Fay, J. B. Fazekas, D. C. Fuls, A. R. Gibbs,
    A. D. Grauer, H. Groeller, J. K. Hogan, R. A. Kowalski, S. M. Larson, G.
    J. Leonard, D. Rankin, R. L. Seaman, F. C. Shelly, K. W. Wierzchos.  1.0-m
    prime focus + CCD.
I93 St Pardon de Conques.  Observer F. Losse.  0.40-m f/3.7 reflector + CMO.
Q06 Tarui Observatory, Tarui.  Observer H. Watanabe.  0.35-m f/1.9 Schmidt-
    Cassegrain + CMO.

Orbital elements:
2024 JP10                                                Earth MOID = 0.0150 AU
Epoch 2024 Mar. 31.0 TT = JDT 2460400.5                 Veres                   
M 336.98117              (2000.0)            P               Q                  
n   0.25856302     Peri.   96.71087     +0.87896846     +0.45773220             
a   2.4401982      Node   236.12992     -0.47581263     +0.82303058             
e   0.8099587      Incl.    9.27165     -0.03188706     +0.33630625             
P   3.81           H   23.65          G   0.15           U   8                  
Residuals in seconds of arc
240507 F51  0.1-  0.0     240510 I52  0.1-  0.3-    240510 474  0.0   0.2+
240507 F51  0.1+  0.0     240510 I52  0.5+  0.0     240510 474  0.0   0.3+
240509 F51  0.1+  0.0     240510 H01  0.0   0.0     240510 474  0.1-  0.0
240509 F51  0.3-  0.2+    240510 I52  0.2+  0.1+    240510 Q06  0.2-  0.2+
240509 F51  0.2+  0.0     240510 I52  0.1+  0.0     240510 Q06  0.6-  0.2+
240510 G96 (1.4-  0.0 )   240510 I52  0.3+  0.4-    240510 Q06  0.2-  1.4+
240510 G96  0.5-  0.1+    240510 I52  0.7+  0.2+    240510 I93  0.8-  0.1-
240510 G96 (1.0+  0.8-)   240510 H01  0.1+  0.2-    240510 I93  0.3-  0.2-
240510 G96 (1.5+  0.5-)   240510 H01  0.1+  0.1-    240510 I93  0.7+  0.1+
240510 I52  0.1+  0.1+    240510 H01  0.1+  0.1-
240510 I52  0.5+  0.4-    240510 474  0.0   0.1-

Ephemeris:
2024 JP10                a,e,i = 2.44, 0.81, 9                   q = 0.4637
Date    TT    R. A. (2000) Decl.     Delta      r    Elong.  Phase     V
2024 04 10    15 00 35.4 -28 41 27   0.5367  1.4831   147.6    21.2    24.2
...
2024 04 25    14 44 48.6 -29 46 02   0.2893  1.2838   161.6    14.3    22.3
...
2024 05 03    14 13 17.5 -29 48 52   0.1690  1.1718   164.5    13.3    20.9
...
2024 05 09    12 56 43.5 -27 11 13   0.08721 1.0852   149.0    28.6    19.8
2024 05 10    12 30 02.3 -25 33 02   0.07539 1.0706   142.5    35.0    19.6
2024 05 11    11 55 24.8 -22 53 09   0.06478 1.0559   133.8    43.6    19.5
...
2024 05 17    06 48 04.4 +16 35 57   0.06542 0.9667    45.7   131.6    23.5
...
2024 05 25    04 41 26.5 +27 11 17   0.1702  0.8456     9.9   168.1    34.7
...
2024 06 09    04 02 12.7 +28 08 03   0.4183  0.6237    16.0   153.4    29.9

M. P. C. Staff               (C) Copyright 2024 MPC           M.P.E.C. 2024-J258





More information about the Iaude mailing list